[[[{"header":{"parameterUnit":"kt","parameterCategory":2,"dx":1,"dy":1,"la1":30.253999710083008,"la2":30.299108505249023,"lo1":-89.0895004272461,"lo2":-89.04439544677734,"nx":28,"ny":28,"refTime":"2022-10-18T21:00:00:Z","depth":0,"parameterNumber":1,"parameterNumberName":"U-component_of_WINDS"},"data":[-0.7935,-0.8098,-0.8133,-0.8336,-0.8402,-0.8548,-0.8612,-0.8699,-0.8778,-0.8957,-0.9068,-0.9123,-0.9218,-0.936,-0.9483,-0.9506,-0.9557,-0.9586,-0.9609,-0.944,-0.9419,-0.94,-0.9364,-0.9596,-0.9596,-0.9779,-0.9781,-0.9782,-0.7803,-0.7869,-0.7987,-0.8126,-0.8228,-0.822,-0.8331,-0.8417,-0.8549,-0.8648,-0.8759,-0.8921,-0.9055,-0.9144,-0.928,-0.9359,-0.9366,-0.9394,-0.9391,-0.9407,-0.9226,-0.9187,-0.9386,-0.9386,-0.9386,-0.9386,-0.9386,-0.9386,-0.7573,-0.7669,-0.7774,-0.7903,-0.7983,-0.8077,-0.8176,-0.8241,-0.8359,-0.8504,-0.8527,-0.8678,-0.8787,-0.8972,-0.9044,-0.9164,-0.9141,-0.9185,-0.9197,-0.9208,-0.9215,-0.8947,-0.9189,-0.9188,-0.9188,-0.9188,-0.9187,0,-0.7417,-0.744,-0.7557,-0.7684,-0.778,-0.7883,-0.7985,-0.8047,-0.8114,-0.821,-0.8351,-0.844,-0.8615,-0.8755,-0.8892,-0.896,-0.8968,-0.8973,-0.9004,-0.8997,-0.8971,-0.8989,-0.8695,-0.8967,-0.8965,-0.8964,-0.8963,-0.8963,-0.719,-0.7298,-0.7427,-0.7504,-0.7569,-0.7693,-0.7775,-0.7826,-0.7912,-0.8046,-0.8131,-0.827,-0.8385,-0.8608,-0.8689,-0.8822,-0.8829,-0.8928,-0.885,-0.8835,-0.8834,-0.8828,-0.884,-0.8944,-0.8946,-0.8948,-0.895,0,-0.7059,-0.712,-0.73,-0.7419,-0.7452,-0.7564,-0.7667,-0.7768,-0.7822,-0.7968,-0.8005,-0.8092,-0.8232,-0.8298,-0.8472,-0.8502,-0.8691,-0.8692,-0.8652,-0.8658,-0.8755,-0.8746,-0.9057,-0.9101,-0.8857,-0.886,-0.8861,0,-0.6892,-0.7033,-0.7116,-0.7218,-0.7376,-0.7424,-0.758,-0.7643,-0.7738,-0.7854,-0.787,-0.7979,-0.8046,-0.8165,-0.821,-0.8375,-0.8408,-0.8442,-0.8453,-0.8443,-0.8439,-0.8495,-0.8485,-0.8471,-0.8469,-0.8468,-0.8467,0,-0.6684,-0.6894,-0.7059,-0.7117,-0.7261,-0.7338,-0.7402,-0.7509,-0.7591,-0.7707,-0.7761,-0.7893,-0.7968,-0.807,-0.8128,-0.8072,-0.8331,-0.8266,-0.8367,-0.8365,-0.8425,-0.8421,-0.8675,-0.8465,-0.8464,-0.8464,-0.8463,0,-0.656,-0.6674,-0.6904,-0.7024,-0.7078,-0.7187,-0.732,-0.7429,-0.7542,-0.7577,-0.7669,-0.7691,-0.784,-0.7771,-0.7977,-0.7888,-0.796,-0.8007,-0.8015,-0.8037,-0.796,-0.8098,-0.833,-0.8358,-0.805,-0.8046,-0.8043,0,-0.6306,-0.6555,-0.6599,-0.6817,-0.6942,-0.6953,-0.7075,-0.7175,-0.7232,-0.7348,-0.7412,-0.7545,-0.7507,-0.7559,-0.7651,-0.7725,-0.784,-0.7711,-0.7883,-0.7888,-0.7854,-0.8067,-0.8087,-0.827,-0.8,-0.8005,-0.8008,0,-0.6119,-0.6291,-0.6328,-0.6397,-0.6535,-0.6641,-0.6781,-0.6923,-0.6997,-0.7108,-0.723,-0.7417,-0.7397,-0.7483,-0.7516,-0.761,-0.7763,-0.7577,-0.7581,-0.7611,-0.7984,-0.8001,-0.8032,-0.7765,-0.777,-0.7775,-0.7974,0,-0.5922,-0.6055,-0.6154,-0.6307,-0.6398,-0.6539,-0.6608,-0.6695,-0.6716,-0.6775,-0.6954,-0.7057,-0.7206,-0.7258,-0.7282,-0.7474,-0.7453,-0.7432,-0.7375,-0.7512,-0.758,-0.7607,-0.7267,-0.7266,-0.7265,-0.7264,0,0,-0.5666,-0.5858,-0.5904,-0.6043,-0.6123,-0.6135,-0.628,-0.636,-0.6523,-0.6579,-0.6546,-0.6827,-0.6914,-0.7127,-0.7175,-0.7234,-0.7277,-0.7227,-0.7445,-0.7465,-0.7484,-0.7555,-0.7582,-0.7262,-0.7262,-0.7261,-0.7261,0,-0.561,-0.5691,-0.5832,-0.5916,-0.6043,-0.6097,-0.6131,-0.626,-0.6305,-0.6482,-0.6493,-0.661,-0.6835,-0.6926,-0.7001,-0.7201,-0.7207,-0.7241,-0.7324,-0.7432,-0.7453,-0.7472,-0.7546,-0.7571,-0.7258,-0.7259,-0.7259,0,-0.5439,-0.5532,-0.5607,-0.5789,-0.5874,-0.6003,-0.5957,-0.6096,-0.6193,-0.6205,-0.6381,-0.6449,-0.6577,-0.6768,-0.6856,-0.683,-0.7138,-0.7054,-0.7063,-0.7076,-0.7184,-0.721,-0.7232,-0.6934,-0.6933,-0.6931,0,0,-0.5382,-0.5506,-0.5625,-0.5783,-0.5834,-0.5919,-0.5995,-0.6026,-0.6138,-0.6183,-0.6272,-0.6382,-0.6514,-0.66,-0.6727,-0.6926,-0.6959,-0.7011,-0.7027,-0.7039,-0.7058,-0.7169,-0.7195,-0.6926,-0.6926,-0.6926,0,0,-0.5356,-0.5499,-0.55,-0.5692,-0.5796,-0.5927,-0.6023,-0.6029,-0.6151,-0.6143,-0.6205,-0.6238,-0.6417,-0.6485,-0.6403,-0.6709,-0.665,-0.6671,-0.6659,-0.668,-0.6695,-0.6677,-0.6376,0,0,0,0,0,-0.5335,-0.548,-0.548,-0.5523,-0.5756,-0.5926,-0.5957,-0.6009,-0.5965,-0.6039,-0.6114,-0.6114,-0.6453,-0.6382,-0.6426,-0.6518,-0.6856,-0.6868,-0.688,-0.6912,-0.6932,-0.6949,0,0,0,0,0,0,-0.5353,-0.5405,-0.5476,-0.5612,-0.5665,-0.5921,-0.5859,-0.5877,-0.5959,-0.5956,-0.6099,-0.6119,-0.6169,-0.6364,-0.6402,-0.6489,-0.6364,-0.6861,-0.6871,-0.6881,-0.6919,-0.6935,-0.695,0,0,0,0,0,-0.5367,-0.5408,-0.5768,-0.561,-0.5656,-0.576,-0.5854,-0.5869,-0.5933,-0.6051,-0.607,-0.5965,-0.617,-0.6206,-0.6387,-0.647,-0.6338,-0.6352,-0.6868,-0.6876,-0.6883,-0.6927,0,0,0,0,0,0,-0.5377,-0.5425,-0.5779,-0.5795,-0.556,-0.5747,-0.5778,-0.5861,-0.6024,-0.6044,-0.5918,-0.5914,-0.6173,-0.62,-0.6228,-0.6461,-0.6316,-0.6331,-0.6339,-0.6874,-0.6881,-0.6886,0,0,0,0,0,0,-0.5403,-0.5438,-0.5787,-0.572,-0.5729,-0.5734,-0.5762,-0.5924,-0.6026,-0.5883,-0.5884,-0.5915,-0.6132,-0.6197,-0.6218,-0.647,-0.63,-0.6314,-0.6323,-0.6329,-0.6879,-0.6884,0,0,0,0,0,0,-0.5419,-0.5449,-0.5716,-0.5723,-0.5731,-0.5916,-0.5879,-0.6116,-0.5964,-0.5876,-0.5952,-0.5947,-0.6129,-0.6152,-0.6211,-0.6454,-0.6465,-0.63,-0.631,-0.6316,-0.6321,0,0,0,0,0,0,0,-0.5432,-0.5213,-0.5683,-0.5726,-0.5732,-0.5943,-0.5948,-0.5952,-0.5963,-0.5958,-0.5954,-0.5949,-0.6222,-0.6237,-0.6252,-0.6441,0,0,-0.6299,-0.6306,0,0,0,0,0,0,0,0,-0.5201,-0.521,-0.5683,-0.5687,-0.569,-0.5944,-0.5948,-0.5951,-0.5962,-0.5958,-0.5955,-0.5951,-0.6226,-0.6238,-0.625,0,0,0,0,0,0,0,0,0,0,0,0,0,0,0,-0.5684,-0.5686,0,-0.5945,-0.5948,-0.5951,-0.5962,-0.5959,-0.5956,-0.5953,-0.6229,-0.6239,-0.6249,0,0,0,0,0,0,0,0,0,0,0,0,0,0,0,0,0,0,0,0,0,0,0,0,0,0,0,0,0,0,0,0,0,0,0,0,0,0,0,0,0,0,0,0,0,0,0,0,0,0,0,0,0,0,0,0,0,0,0,0,0,0,0,0,0,0,0,0,0]}],[{"header":{"parameterUnit":"kt","parameterCategory":2,"dx":1,"dy":1,"la1":30.253999710083008,"la2":30.299108505249023,"lo1":-89.0895004272461,"lo2":-89.04439544677734,"nx":28,"ny":28,"refTime":"2022-10-18T21:00:00:Z","depth":0,"parameterNumber":2,"parameterNumberName":"V-component_of_WINDS"},"data":[-17.4383,-17.4734,-17.4729,-17.5125,-17.5186,-17.5454,-17.5548,-17.5667,-17.5759,-17.6074,-17.6253,-17.6279,-17.6364,-17.6572,-17.6762,-17.6768,-17.6849,-17.6978,-17.6963,-17.6396,-17.6316,-17.6241,-17.6159,-17.6996,-17.6997,-17.755,-17.7556,-17.7559,-17.3967,-17.4033,-17.4242,-17.444,-17.4617,-17.449,-17.4634,-17.479,-17.5032,-17.5148,-17.5324,-17.5598,-17.5813,-17.5854,-17.6057,-17.6216,-17.6165,-17.6271,-17.6259,-17.6274,-17.5668,-17.5581,-17.6309,-17.6309,-17.6309,-17.6309,-17.6308,-17.6308,-17.3208,-17.3419,-17.3536,-17.3761,-17.3858,-17.399,-17.4188,-17.4216,-17.4417,-17.4633,-17.4583,-17.4854,-17.4965,-17.5204,-17.5281,-17.5489,-17.5368,-17.5481,-17.5509,-17.5538,-17.5572,-17.4774,-17.5522,-17.552,-17.5518,-17.5516,-17.5515,0,-17.265,-17.2632,-17.2831,-17.303,-17.3193,-17.3345,-17.3481,-17.3603,-17.3554,-17.3722,-17.3962,-17.4099,-17.4366,-17.4588,-17.4775,-17.4831,-17.4711,-17.4698,-17.4775,-17.4804,-17.4806,-17.4809,-17.3821,-17.4676,-17.4669,-17.4663,-17.4659,-17.4657,-17.1884,-17.2131,-17.2248,-17.2389,-17.2462,-17.269,-17.2822,-17.2761,-17.2904,-17.3061,-17.3247,-17.347,-17.3645,-17.4027,-17.4051,-17.425,-17.4192,-17.452,-17.4221,-17.4239,-17.4197,-17.4183,-17.4207,-17.4579,-17.4589,-17.4597,-17.4604,0,-17.1453,-17.1441,-17.182,-17.191,-17.194,-17.22,-17.2275,-17.2481,-17.2483,-17.2766,-17.2828,-17.2833,-17.3067,-17.3038,-17.3299,-17.3276,-17.3699,-17.3638,-17.366,-17.3646,-17.3936,-17.3909,-17.4884,-17.5007,-17.4139,-17.4147,-17.4154,0,-17.0793,-17.1119,-17.1081,-17.1302,-17.166,-17.1589,-17.1945,-17.1982,-17.2078,-17.2299,-17.216,-17.237,-17.2299,-17.2505,-17.2472,-17.2811,-17.286,-17.2862,-17.2849,-17.2876,-17.2875,-17.2948,-17.2907,-17.2811,-17.2806,-17.2802,-17.2798,0,-17.012,-17.048,-17.0838,-17.0918,-17.1045,-17.1214,-17.1274,-17.1379,-17.151,-17.1673,-17.1756,-17.195,-17.2057,-17.2208,-17.2164,-17.1962,-17.2578,-17.2291,-17.258,-17.2582,-17.2718,-17.271,-17.358,-17.2792,-17.279,-17.2789,-17.2787,0,-16.9584,-16.9755,-17.0277,-17.0378,-17.0475,-17.0711,-17.0899,-17.1093,-17.1214,-17.1209,-17.1336,-17.1238,-17.1534,-17.1251,-17.1655,-17.1405,-17.1517,-17.1546,-17.1566,-17.159,-17.1275,-17.177,-17.2602,-17.2688,-17.1612,-17.1603,-17.1594,0,-16.8816,-16.9339,-16.9282,-16.9778,-17.0015,-16.9842,-17.0101,-17.0212,-17.0227,-17.0427,-17.044,-17.0669,-17.0452,-17.0519,-17.0723,-17.0745,-17.1071,-17.0701,-17.0985,-17.0996,-17.0959,-17.1725,-17.1856,-17.2423,-17.1468,-17.1481,-17.1491,0,-16.8218,-16.8372,-16.8465,-16.8552,-16.869,-16.8887,-16.9185,-16.9397,-16.9533,-16.9673,-16.992,-17.0239,-17.0088,-17.0201,-17.014,-17.0355,-17.0848,-17.0163,-17.0165,-17.0287,-17.1402,-17.1526,-17.1621,-17.076,-17.0775,-17.0787,-17.1391,0,-16.7412,-16.7671,-16.7921,-16.8118,-16.8266,-16.8575,-16.8546,-16.8704,-16.8632,-16.864,-16.9001,-16.9083,-16.9296,-16.9396,-16.9327,-16.9828,-16.9738,-16.9575,-16.9297,-16.98,-16.9998,-17.0079,-16.9004,-16.8996,-16.8989,-16.8983,0,0,-16.6679,-16.705,-16.6977,-16.7265,-16.7385,-16.72,-16.7533,-16.7627,-16.7823,-16.7908,-16.7753,-16.8217,-16.8291,-16.8732,-16.8886,-16.8972,-16.9058,-16.8884,-16.9561,-16.9626,-16.9685,-16.9898,-16.9983,-16.8971,-16.8968,-16.8965,-16.8963,0,-16.6379,-16.6463,-16.6794,-16.6889,-16.7027,-16.702,-16.7099,-16.7202,-16.7222,-16.7577,-16.7416,-16.7629,-16.8001,-16.81,-16.8199,-16.883,-16.8696,-16.8897,-16.9247,-16.9491,-16.9565,-16.963,-16.9854,-16.9936,-16.8946,-16.8947,-16.8948,0,-16.5785,-16.5862,-16.6019,-16.6284,-16.6372,-16.662,-16.6322,-16.6596,-16.6778,-16.6558,-16.6912,-16.6954,-16.7083,-16.7504,-16.7692,-16.7556,-16.8368,-16.8106,-16.8149,-16.8169,-16.8403,-16.8493,-16.8572,-16.7528,-16.7523,-16.7518,0,0,-16.5528,-16.5769,-16.5831,-16.6217,-16.6284,-16.6277,-16.6405,-16.6347,-16.6468,-16.6518,-16.6568,-16.669,-16.6904,-16.7048,-16.7248,-16.7715,-16.7735,-16.7933,-16.8,-16.8054,-16.8104,-16.8353,-16.8441,-16.75,-16.75,-16.7499,0,0,-16.5404,-16.5493,-16.5399,-16.5844,-16.5968,-16.6052,-16.6288,-16.6175,-16.6352,-16.6313,-16.6224,-16.6252,-16.6645,-16.6692,-16.6453,-16.7147,-16.6873,-16.693,-16.7103,-16.7187,-16.7253,-16.7233,-16.6157,0,0,0,0,0,-16.5082,-16.5481,-16.5396,-16.5466,-16.5799,-16.61,-16.6142,-16.6079,-16.5886,-16.6075,-16.6098,-16.5946,-16.6545,-16.6331,-16.6401,-16.6667,-16.7266,-16.7308,-16.7347,-16.768,-16.7768,-16.7843,0,0,0,0,0,0,-16.5109,-16.5195,-16.5385,-16.5488,-16.5562,-16.6085,-16.5745,-16.5738,-16.5864,-16.5831,-16.5947,-16.595,-16.59,-16.6291,-16.6355,-16.661,-16.6135,-16.7283,-16.7318,-16.735,-16.771,-16.7783,-16.7844,0,0,0,0,0,-16.513,-16.5199,-16.5751,-16.5481,-16.5546,-16.5558,-16.5729,-16.5721,-16.5817,-16.5855,-16.5853,-16.5759,-16.5909,-16.5958,-16.6328,-16.6582,-16.6091,-16.6115,-16.7305,-16.7333,-16.7358,-16.7746,0,0,0,0,0,0,-16.5146,-16.5193,-16.5762,-16.5779,-16.5326,-16.5527,-16.5557,-16.5707,-16.5831,-16.5834,-16.566,-16.5632,-16.5921,-16.5956,-16.5995,-16.6577,-16.6054,-16.6079,-16.6094,-16.7327,-16.7348,-16.7368,0,0,0,0,0,0,-16.5155,-16.5209,-16.5771,-16.5578,-16.5573,-16.55,-16.5526,-16.5831,-16.5835,-16.5629,-16.5609,-16.5646,-16.5861,-16.5958,-16.5986,-16.6464,-16.6027,-16.605,-16.6066,-16.6076,-16.7344,-16.7361,0,0,0,0,0,0,-16.5177,-16.5223,-16.5573,-16.5569,-16.5563,-16.575,-16.5767,-16.6111,-16.5673,-16.5626,-16.5632,-16.5613,-16.5867,-16.5894,-16.5982,-16.6449,-16.646,-16.6027,-16.6043,-16.6055,-16.6062,0,0,0,0,0,0,0,-16.5194,-16.49,-16.5661,-16.5562,-16.5556,-16.5938,-16.5943,-16.5947,-16.5669,-16.5653,-16.5636,-16.5621,-16.5893,-16.5919,-16.5945,-16.6436,0,0,-16.6025,-16.6036,0,0,0,0,0,0,0,0,-16.4879,-16.4895,-16.5662,-16.5665,-16.5669,-16.5939,-16.5942,-16.5946,-16.5666,-16.5653,-16.564,-16.5627,-16.59,-16.5921,-16.5942,0,0,0,0,0,0,0,0,0,0,0,0,0,0,0,-16.5662,-16.5665,0,-16.5939,-16.5942,-16.5945,-16.5664,-16.5653,-16.5642,-16.5632,-16.5906,-16.5923,-16.594,0,0,0,0,0,0,0,0,0,0,0,0,0,0,0,0,0,0,0,0,0,0,0,0,0,0,0,0,0,0,0,0,0,0,0,0,0,0,0,0,0,0,0,0,0,0,0,0,0,0,0,0,0,0,0,0,0,0,0,0,0,0,0,0,0,0,0,0,0]}]]]